Year,Month,Day,Hour,Minute,Value (Times are PST for temperature in C)
2015,07,02,00,00,23.00
2015,07,02,00,01,23.00
2015,07,02,00,02,22.90
2015,07,02,00,03,22.90
2015,07,02,00,04,22.90
2015,07,02,00,05,22.90
2015,07,02,00,06,22.80
2015,07,02,00,07,22.80
2015,07,02,00,08,22.80
2015,07,02,00,09,22.80
2015,07,02,00,10,22.70
2015,07,02,00,11,22.70
2015,07,02,00,12,22.70
2015,07,02,00,13,22.60
2015,07,02,00,14,22.60
2015,07,02,00,15,22.60
2015,07,02,00,16,22.50
2015,07,02,00,17,22.50
2015,07,02,00,18,22.50
2015,07,02,00,19,22.40
2015,07,02,00,20,22.40
2015,07,02,00,21,22.40
2015,07,02,00,22,22.40
2015,07,02,00,23,22.40
2015,07,02,00,24,22.40
2015,07,02,00,25,22.40
2015,07,02,00,26,22.40
2015,07,02,00,27,22.40
2015,07,02,00,28,22.30
2015,07,02,00,29,22.30
2015,07,02,00,30,22.30
2015,07,02,00,31,22.30
2015,07,02,00,32,22.30
2015,07,02,00,33,22.30
2015,07,02,00,34,22.20
2015,07,02,00,35,22.20
2015,07,02,00,36,22.10
2015,07,02,00,37,22.10
2015,07,02,00,38,22.10
2015,07,02,00,39,22.00
2015,07,02,00,40,22.00
2015,07,02,00,41,22.00
2015,07,02,00,42,22.00
2015,07,02,00,43,21.90
2015,07,02,00,44,21.90
2015,07,02,00,45,21.90
2015,07,02,00,46,21.80
2015,07,02,00,47,21.80
2015,07,02,00,48,21.80
2015,07,02,00,49,21.80
2015,07,02,00,50,21.80
2015,07,02,00,51,21.80
2015,07,02,00,52,21.70
2015,07,02,00,53,21.70
2015,07,02,00,54,21.70
2015,07,02,00,55,21.70
2015,07,02,00,56,21.70
2015,07,02,00,57,21.70
2015,07,02,00,58,21.70
2015,07,02,00,59,21.70
2015,07,02,01,00,21.70
2015,07,02,01,01,21.60
2015,07,02,01,02,21.60
2015,07,02,01,03,21.60
2015,07,02,01,04,21.60
2015,07,02,01,05,21.50
2015,07,02,01,06,21.50
2015,07,02,01,07,21.40
2015,07,02,01,08,21.40
2015,07,02,01,09,21.40
2015,07,02,01,10,21.40
2015,07,02,01,11,21.30
2015,07,02,01,12,21.30
2015,07,02,01,13,21.30
2015,07,02,01,14,21.20
2015,07,02,01,15,21.20
2015,07,02,01,16,21.10
2015,07,02,01,17,21.10
2015,07,02,01,18,21.00
2015,07,02,01,19,21.00
2015,07,02,01,20,20.90
2015,07,02,01,21,20.90
2015,07,02,01,22,20.80
2015,07,02,01,23,20.80
2015,07,02,01,24,20.80
2015,07,02,01,25,20.80
2015,07,02,01,26,20.80
2015,07,02,01,27,20.70
2015,07,02,01,28,20.70
2015,07,02,01,29,20.70
2015,07,02,01,30,20.70
2015,07,02,01,31,20.70
2015,07,02,01,32,20.70
2015,07,02,01,33,20.70
2015,07,02,01,34,20.70
2015,07,02,01,35,20.70
2015,07,02,01,36,20.70
2015,07,02,01,37,20.70
2015,07,02,01,38,20.70
2015,07,02,01,39,20.70
2015,07,02,01,40,20.70
2015,07,02,01,41,20.70
2015,07,02,01,42,20.70
2015,07,02,01,43,20.70
2015,07,02,01,44,20.70
2015,07,02,01,45,20.70
2015,07,02,01,46,20.70
2015,07,02,01,47,20.70
2015,07,02,01,48,20.70
2015,07,02,01,49,20.70
2015,07,02,01,50,20.70
2015,07,02,01,51,20.70
2015,07,02,01,52,20.70
2015,07,02,01,53,20.70
2015,07,02,01,54,20.70
2015,07,02,01,55,20.70
2015,07,02,01,56,20.70
2015,07,02,01,57,20.60
2015,07,02,01,58,20.60
2015,07,02,01,59,20.60
2015,07,02,02,00,20.50
2015,07,02,02,01,20.50
2015,07,02,02,02,20.50
2015,07,02,02,03,20.40
2015,07,02,02,04,20.40
2015,07,02,02,05,20.40
2015,07,02,02,06,20.40
2015,07,02,02,07,20.40
2015,07,02,02,08,20.40
2015,07,02,02,09,20.40
2015,07,02,02,10,20.40
2015,07,02,02,11,20.40
2015,07,02,02,12,20.40
2015,07,02,02,13,20.30
2015,07,02,02,14,20.30
2015,07,02,02,15,20.30
2015,07,02,02,16,20.30
2015,07,02,02,17,20.20
2015,07,02,02,18,20.20
2015,07,02,02,19,20.20
2015,07,02,02,20,20.10
2015,07,02,02,21,20.10
2015,07,02,02,22,20.10
2015,07,02,02,23,20.00
2015,07,02,02,24,20.00
2015,07,02,02,25,20.00
2015,07,02,02,26,19.90
2015,07,02,02,27,19.90
2015,07,02,02,28,19.80
2015,07,02,02,29,19.80
2015,07,02,02,30,19.70
2015,07,02,02,31,19.70
2015,07,02,02,32,19.70
2015,07,02,02,33,19.60
2015,07,02,02,34,19.60
2015,07,02,02,35,19.60
2015,07,02,02,36,19.70
2015,07,02,02,37,19.70
2015,07,02,02,38,19.80
2015,07,02,02,39,19.80
2015,07,02,02,40,19.80
2015,07,02,02,41,19.90
2015,07,02,02,42,19.90
2015,07,02,02,43,19.90
2015,07,02,02,44,19.90
2015,07,02,02,45,19.90
2015,07,02,02,46,19.80
2015,07,02,02,47,19.80
2015,07,02,02,48,19.80
2015,07,02,02,49,19.80
2015,07,02,02,50,19.70
2015,07,02,02,51,19.70
2015,07,02,02,52,19.70
2015,07,02,02,53,19.60
2015,07,02,02,54,19.60
2015,07,02,02,55,19.60
2015,07,02,02,56,19.60
2015,07,02,02,57,19.60
2015,07,02,02,58,19.50
2015,07,02,02,59,19.50
2015,07,02,03,00,19.50
2015,07,02,03,01,19.60
2015,07,02,03,02,19.60
2015,07,02,03,03,19.60
2015,07,02,03,04,19.60
2015,07,02,03,05,19.60
2015,07,02,03,06,19.60
2015,07,02,03,07,19.60
2015,07,02,03,08,19.60
2015,07,02,03,09,19.60
2015,07,02,03,10,19.60
2015,07,02,03,11,19.60
2015,07,02,03,12,19.70
2015,07,02,03,13,19.70
2015,07,02,03,14,19.70
2015,07,02,03,15,19.70
2015,07,02,03,16,19.70
2015,07,02,03,17,19.70
2015,07,02,03,18,19.70
2015,07,02,03,19,19.70
2015,07,02,03,20,19.60
2015,07,02,03,21,19.60
2015,07,02,03,22,19.60
2015,07,02,03,23,19.60
2015,07,02,03,24,19.50
2015,07,02,03,25,19.50
2015,07,02,03,26,19.50
2015,07,02,03,27,19.50
2015,07,02,03,28,19.40
2015,07,02,03,29,19.40
2015,07,02,03,30,19.40
2015,07,02,03,31,19.40
2015,07,02,03,32,19.40
2015,07,02,03,33,19.40
2015,07,02,03,34,19.40
2015,07,02,03,35,19.40
2015,07,02,03,36,19.40
2015,07,02,03,37,19.40
2015,07,02,03,38,19.40
2015,07,02,03,39,19.30
2015,07,02,03,40,19.30
2015,07,02,03,41,19.30
2015,07,02,03,42,19.30
2015,07,02,03,43,19.30
2015,07,02,03,44,19.30
2015,07,02,03,45,19.20
2015,07,02,03,46,19.20
2015,07,02,03,47,19.20
2015,07,02,03,48,19.10
2015,07,02,03,49,19.10
2015,07,02,03,50,19.00
2015,07,02,03,51,18.90
2015,07,02,03,52,18.90
2015,07,02,03,53,18.90
2015,07,02,03,54,18.80
2015,07,02,03,55,18.80
2015,07,02,03,56,18.80
2015,07,02,03,57,18.70
2015,07,02,03,58,18.70
2015,07,02,03,59,18.70
2015,07,02,04,00,18.70
2015,07,02,04,01,18.70
2015,07,02,04,02,18.60
2015,07,02,04,03,18.60
2015,07,02,04,04,18.60
2015,07,02,04,05,18.50
2015,07,02,04,06,18.50
2015,07,02,04,07,18.50
2015,07,02,04,08,18.40
2015,07,02,04,09,18.40
2015,07,02,04,10,18.40
2015,07,02,04,11,18.40
2015,07,02,04,12,18.30
2015,07,02,04,13,18.30
2015,07,02,04,14,18.30
2015,07,02,04,15,18.20
2015,07,02,04,16,18.20
2015,07,02,04,17,18.20
2015,07,02,04,18,18.20
2015,07,02,04,19,18.20
2015,07,02,04,20,18.10
2015,07,02,04,21,18.10
2015,07,02,04,22,18.10
2015,07,02,04,23,18.00
2015,07,02,04,24,18.00
2015,07,02,04,25,17.90
2015,07,02,04,26,17.90
2015,07,02,04,27,17.90
2015,07,02,04,28,17.80
2015,07,02,04,29,17.80
2015,07,02,04,30,17.80
2015,07,02,04,31,17.80
2015,07,02,04,32,17.80
2015,07,02,04,33,17.80
2015,07,02,04,34,17.70
2015,07,02,04,35,17.70
2015,07,02,04,36,17.70
2015,07,02,04,37,17.70
2015,07,02,04,38,17.70
2015,07,02,04,39,17.70
2015,07,02,04,40,17.60
2015,07,02,04,41,17.60
2015,07,02,04,42,17.60
2015,07,02,04,43,17.60
2015,07,02,04,44,17.50
2015,07,02,04,45,17.50
2015,07,02,04,46,17.50
2015,07,02,04,47,17.40
2015,07,02,04,48,17.40
2015,07,02,04,49,17.40
2015,07,02,04,50,17.30
2015,07,02,04,51,17.30
2015,07,02,04,52,17.30
2015,07,02,04,53,17.30
2015,07,02,04,54,17.30
2015,07,02,04,55,17.30
2015,07,02,04,56,17.30
2015,07,02,04,57,17.30
2015,07,02,04,58,17.20
2015,07,02,04,59,17.20
2015,07,02,05,00,17.20
2015,07,02,05,01,17.20
2015,07,02,05,02,17.20
2015,07,02,05,03,17.20
2015,07,02,05,04,17.10
2015,07,02,05,05,17.10
2015,07,02,05,06,17.10
2015,07,02,05,07,17.10
2015,07,02,05,08,17.10
2015,07,02,05,09,17.00
2015,07,02,05,10,17.00
2015,07,02,05,11,17.00
2015,07,02,05,12,17.00
2015,07,02,05,13,17.00
2015,07,02,05,14,16.90
2015,07,02,05,15,16.90
2015,07,02,05,16,16.90
2015,07,02,05,17,16.90
2015,07,02,05,18,16.90
2015,07,02,05,19,16.80
2015,07,02,05,20,16.80
2015,07,02,05,21,16.80
2015,07,02,05,22,16.80
2015,07,02,05,23,16.80
2015,07,02,05,24,16.80
2015,07,02,05,25,16.80
2015,07,02,05,26,16.80
2015,07,02,05,27,16.80
2015,07,02,05,28,16.80
2015,07,02,05,29,16.80
2015,07,02,05,30,16.80
2015,07,02,05,31,16.70
2015,07,02,05,32,16.70
2015,07,02,05,33,16.70
2015,07,02,05,34,16.70
2015,07,02,05,35,16.70
2015,07,02,05,36,16.70
2015,07,02,05,37,16.70
2015,07,02,05,38,16.60
2015,07,02,05,39,16.60
2015,07,02,05,40,16.60
2015,07,02,05,41,16.60
2015,07,02,05,42,16.60
2015,07,02,05,43,16.60
2015,07,02,05,44,16.60
2015,07,02,05,45,16.50
2015,07,02,05,46,16.50
2015,07,02,05,47,16.50
2015,07,02,05,48,16.50
2015,07,02,05,49,16.40
2015,07,02,05,50,16.40
2015,07,02,05,51,16.40
2015,07,02,05,52,16.40
2015,07,02,05,53,16.40
2015,07,02,05,54,16.40
2015,07,02,05,55,16.40
2015,07,02,05,56,16.40
2015,07,02,05,57,16.40
2015,07,02,05,58,16.50
2015,07,02,05,59,16.50
2015,07,02,06,00,16.50
2015,07,02,06,01,16.50
2015,07,02,06,02,16.60
2015,07,02,06,03,16.60
2015,07,02,06,04,16.60
2015,07,02,06,05,16.70
2015,07,02,06,06,16.70
2015,07,02,06,07,16.80
2015,07,02,06,08,16.80
2015,07,02,06,09,16.90
2015,07,02,06,10,16.90
2015,07,02,06,11,17.00
2015,07,02,06,12,17.00
2015,07,02,06,13,17.10
2015,07,02,06,14,17.10
2015,07,02,06,15,17.20
2015,07,02,06,16,17.20
2015,07,02,06,17,17.30
2015,07,02,06,18,17.30
2015,07,02,06,19,17.40
2015,07,02,06,20,17.40
2015,07,02,06,21,17.40
2015,07,02,06,22,17.50
2015,07,02,06,23,17.50
2015,07,02,06,24,17.50
2015,07,02,06,25,17.60
2015,07,02,06,26,17.60
2015,07,02,06,27,17.60
2015,07,02,06,28,17.70
2015,07,02,06,29,17.70
2015,07,02,06,30,17.70
2015,07,02,06,31,17.70
2015,07,02,06,32,17.70
2015,07,02,06,33,17.80
2015,07,02,06,34,17.80
2015,07,02,06,35,17.80
2015,07,02,06,36,17.80
2015,07,02,06,37,17.80
2015,07,02,06,38,17.80
2015,07,02,06,39,17.90
2015,07,02,06,40,17.90
2015,07,02,06,41,17.90
2015,07,02,06,42,17.90
2015,07,02,06,43,17.90
2015,07,02,06,44,18.00
2015,07,02,06,45,18.00
2015,07,02,06,46,18.00
2015,07,02,06,47,18.10
2015,07,02,06,48,18.10
2015,07,02,06,49,18.10
2015,07,02,06,50,18.10
2015,07,02,06,51,18.10
2015,07,02,06,52,18.10
2015,07,02,06,53,18.20
2015,07,02,06,54,18.20
2015,07,02,06,55,18.20
2015,07,02,06,56,18.20
2015,07,02,06,57,18.20
2015,07,02,06,58,18.20
2015,07,02,06,59,18.30
2015,07,02,07,00,18.30
2015,07,02,07,01,18.30
2015,07,02,07,02,18.30
2015,07,02,07,03,18.30
2015,07,02,07,04,18.40
2015,07,02,07,05,18.40
2015,07,02,07,06,18.40
2015,07,02,07,07,18.40
2015,07,02,07,08,18.40
2015,07,02,07,09,18.50
2015,07,02,07,10,18.50
2015,07,02,07,11,18.50
2015,07,02,07,12,18.50
2015,07,02,07,13,18.50
2015,07,02,07,14,18.60
2015,07,02,07,15,18.60
2015,07,02,07,16,18.60
2015,07,02,07,17,18.70
2015,07,02,07,18,18.70
2015,07,02,07,19,18.70
2015,07,02,07,20,18.80
2015,07,02,07,21,18.80
2015,07,02,07,22,18.80
2015,07,02,07,23,18.90
2015,07,02,07,24,18.90
2015,07,02,07,25,18.90
2015,07,02,07,26,18.90
2015,07,02,07,27,18.90
2015,07,02,07,28,19.00
2015,07,02,07,29,19.00
2015,07,02,07,30,19.00
2015,07,02,07,31,19.10
2015,07,02,07,32,19.20
2015,07,02,07,33,19.30
2015,07,02,07,34,19.30
2015,07,02,07,35,19.40
2015,07,02,07,36,19.40
2015,07,02,07,37,19.50
2015,07,02,07,38,19.60
2015,07,02,07,39,19.60
2015,07,02,07,40,19.70
2015,07,02,07,41,19.70
2015,07,02,07,42,19.70
2015,07,02,07,43,19.70
2015,07,02,07,44,19.80
2015,07,02,07,45,19.80
2015,07,02,07,46,19.80
2015,07,02,07,47,19.80
2015,07,02,07,48,19.80
2015,07,02,07,49,19.80
2015,07,02,07,50,19.90
2015,07,02,07,51,19.90
2015,07,02,07,52,19.90
2015,07,02,07,53,19.80
2015,07,02,07,54,19.80
2015,07,02,07,55,19.80
2015,07,02,07,56,19.70
2015,07,02,07,57,19.70
2015,07,02,07,58,19.70
2015,07,02,07,59,19.60
2015,07,02,08,00,19.60
2015,07,02,08,01,19.60
2015,07,02,08,02,19.60
2015,07,02,08,03,19.50
2015,07,02,08,04,19.50
2015,07,02,08,05,19.40
2015,07,02,08,06,19.40
2015,07,02,08,07,19.40
2015,07,02,08,08,19.30
2015,07,02,08,09,19.30
2015,07,02,08,10,19.30
2015,07,02,08,11,19.40
2015,07,02,08,12,19.40
2015,07,02,08,13,19.50
2015,07,02,08,14,19.50
2015,07,02,08,15,19.50
2015,07,02,08,16,19.50
2015,07,02,08,17,19.60
2015,07,02,08,18,19.60
2015,07,02,08,19,19.60
2015,07,02,08,20,19.60
2015,07,02,08,21,19.60
2015,07,02,08,22,19.60
2015,07,02,08,23,19.70
2015,07,02,08,24,19.70
2015,07,02,08,25,19.70
2015,07,02,08,26,19.70
2015,07,02,08,27,19.70
2015,07,02,08,28,19.70
2015,07,02,08,29,19.70
2015,07,02,08,30,19.70
2015,07,02,08,31,19.80
2015,07,02,08,32,19.80
2015,07,02,08,33,19.90
2015,07,02,08,34,19.90
2015,07,02,08,35,19.90
2015,07,02,08,36,20.00
2015,07,02,08,37,20.10
2015,07,02,08,38,20.10
2015,07,02,08,39,20.20
2015,07,02,08,40,20.20
2015,07,02,08,41,20.20
2015,07,02,08,42,20.20
2015,07,02,08,43,20.20
2015,07,02,08,44,20.20
2015,07,02,08,45,20.20
2015,07,02,08,46,20.30
2015,07,02,08,47,20.30
2015,07,02,08,48,20.30
2015,07,02,08,49,20.30
2015,07,02,08,50,20.30
2015,07,02,08,51,20.30
2015,07,02,08,52,20.30
2015,07,02,08,53,20.30
2015,07,02,08,54,20.30
2015,07,02,08,55,20.20
2015,07,02,08,56,20.20
2015,07,02,08,57,20.20
2015,07,02,08,58,20.10
2015,07,02,08,59,20.10
2015,07,02,09,00,20.10
2015,07,02,09,01,20.00
2015,07,02,09,02,19.90
2015,07,02,09,03,19.90
2015,07,02,09,04,19.80
2015,07,02,09,05,19.80
2015,07,02,09,06,19.80
2015,07,02,09,07,19.80
2015,07,02,09,08,19.90
2015,07,02,09,09,19.90
2015,07,02,09,10,19.90
2015,07,02,09,11,19.80
2015,07,02,09,12,19.80
2015,07,02,09,13,19.70
2015,07,02,09,14,19.70
2015,07,02,09,15,19.70
2015,07,02,09,16,19.70
2015,07,02,09,17,19.70
2015,07,02,09,18,19.70
2015,07,02,09,19,19.70
2015,07,02,09,20,19.70
2015,07,02,09,21,19.80
2015,07,02,09,22,19.80
2015,07,02,09,23,19.90
2015,07,02,09,24,19.90
2015,07,02,09,25,20.00
2015,07,02,09,26,20.00
2015,07,02,09,27,19.90
2015,07,02,09,28,19.80
2015,07,02,09,29,19.80
2015,07,02,09,30,19.80
2015,07,02,09,31,19.90
2015,07,02,09,32,19.90
2015,07,02,09,33,19.90
2015,07,02,09,34,19.90
2015,07,02,09,35,19.90
2015,07,02,09,36,19.90
2015,07,02,09,37,19.90
2015,07,02,09,38,19.90
2015,07,02,09,39,20.00
2015,07,02,09,40,20.00
2015,07,02,09,41,20.10
2015,07,02,09,42,20.10
2015,07,02,09,43,20.20
2015,07,02,09,44,20.20
2015,07,02,09,45,20.20
2015,07,02,09,46,20.20
2015,07,02,09,47,20.20
2015,07,02,09,48,20.20
2015,07,02,09,49,20.20
2015,07,02,09,50,20.20
2015,07,02,09,51,20.20
2015,07,02,09,52,20.20
2015,07,02,09,53,20.20
2015,07,02,09,54,20.20
2015,07,02,09,55,20.20
2015,07,02,09,56,20.20
2015,07,02,09,57,20.30
2015,07,02,09,58,20.30
2015,07,02,09,59,20.40
2015,07,02,10,00,20.40
2015,07,02,10,01,20.40
2015,07,02,10,02,20.40
2015,07,02,10,03,20.40
2015,07,02,10,04,20.40
2015,07,02,10,05,20.30
2015,07,02,10,06,20.30
2015,07,02,10,07,20.40
2015,07,02,10,08,20.40
2015,07,02,10,09,20.30
2015,07,02,10,10,20.30
2015,07,02,10,11,20.30
2015,07,02,10,12,20.30
2015,07,02,10,13,20.30
2015,07,02,10,14,20.30
2015,07,02,10,15,20.40
2015,07,02,10,16,20.40
2015,07,02,10,17,20.50
2015,07,02,10,18,20.50
2015,07,02,10,19,20.60
2015,07,02,10,20,20.60
2015,07,02,10,21,20.70
2015,07,02,10,22,20.70
2015,07,02,10,23,20.80
2015,07,02,10,24,20.80
2015,07,02,10,25,20.90
2015,07,02,10,26,20.90
2015,07,02,10,27,21.00
2015,07,02,10,28,21.00
2015,07,02,10,29,21.00
2015,07,02,10,30,21.00
2015,07,02,10,31,21.00
2015,07,02,10,32,21.10
2015,07,02,10,33,21.10
2015,07,02,10,34,21.10
2015,07,02,10,35,21.10
2015,07,02,10,36,21.20
2015,07,02,10,37,21.20
2015,07,02,10,38,21.20
2015,07,02,10,39,21.10
2015,07,02,10,40,21.10
2015,07,02,10,41,21.10
2015,07,02,10,42,21.10
2015,07,02,10,43,21.10
2015,07,02,10,44,21.10
2015,07,02,10,45,21.20
2015,07,02,10,46,21.20
2015,07,02,10,47,21.30
2015,07,02,10,48,21.40
2015,07,02,10,49,21.40
2015,07,02,10,50,21.40
2015,07,02,10,51,21.40
2015,07,02,10,52,21.40
2015,07,02,10,53,21.40
2015,07,02,10,54,21.40
2015,07,02,10,55,21.50
2015,07,02,10,56,21.50
2015,07,02,10,57,21.60
2015,07,02,10,58,21.60
2015,07,02,10,59,21.60
2015,07,02,11,00,21.60
2015,07,02,11,01,21.60
2015,07,02,11,02,21.60
2015,07,02,11,03,21.60
2015,07,02,11,04,21.50
2015,07,02,11,05,21.50
2015,07,02,11,06,21.50
2015,07,02,11,07,21.40
2015,07,02,11,08,21.40
2015,07,02,11,09,21.40
2015,07,02,11,10,21.40
2015,07,02,11,11,21.30
2015,07,02,11,12,21.30
2015,07,02,11,13,21.30
2015,07,02,11,14,21.30
2015,07,02,11,15,21.30
2015,07,02,11,16,21.30
2015,07,02,11,17,21.30
2015,07,02,11,18,21.30
2015,07,02,11,19,21.30
2015,07,02,11,20,21.40
2015,07,02,11,21,21.40
2015,07,02,11,22,21.50
2015,07,02,11,23,21.50
2015,07,02,11,24,21.60
2015,07,02,11,25,21.60
2015,07,02,11,26,21.70
2015,07,02,11,27,21.70
2015,07,02,11,28,21.70
2015,07,02,11,29,21.80
2015,07,02,11,30,21.80
2015,07,02,11,31,21.80
2015,07,02,11,32,21.80
2015,07,02,11,33,21.90
2015,07,02,11,34,21.90
2015,07,02,11,35,21.90
2015,07,02,11,36,21.90
2015,07,02,11,37,21.90
2015,07,02,11,38,21.90
2015,07,02,11,39,21.90
2015,07,02,11,40,22.00
2015,07,02,11,41,22.10
2015,07,02,11,42,22.10
2015,07,02,11,43,22.20
2015,07,02,11,44,22.30
2015,07,02,11,45,22.40
2015,07,02,11,46,22.50
2015,07,02,11,47,22.50
2015,07,02,11,48,22.60
2015,07,02,11,49,22.60
2015,07,02,11,50,22.60
2015,07,02,11,51,22.60
2015,07,02,11,52,22.70
2015,07,02,11,53,22.70
2015,07,02,11,54,22.70
2015,07,02,11,55,22.70
2015,07,02,11,56,22.80
2015,07,02,11,57,22.80
2015,07,02,11,58,22.90
2015,07,02,11,59,22.90
2015,07,02,12,00,23.00
2015,07,02,12,01,23.10
2015,07,02,12,02,23.20
2015,07,02,12,03,23.30
2015,07,02,12,04,23.40
2015,07,02,12,05,23.50
2015,07,02,12,06,23.60
2015,07,02,12,07,23.70
2015,07,02,12,08,23.90
2015,07,02,12,09,24.10
2015,07,02,12,10,24.20
2015,07,02,12,11,24.30
2015,07,02,12,12,24.40
2015,07,02,12,13,24.50
2015,07,02,12,14,24.60
2015,07,02,12,15,24.60
2015,07,02,12,16,24.50
2015,07,02,12,17,24.50
2015,07,02,12,18,24.60
2015,07,02,12,19,24.60
2015,07,02,12,20,24.60
2015,07,02,12,21,24.60
2015,07,02,12,22,24.60
2015,07,02,12,23,24.60
2015,07,02,12,24,24.60
2015,07,02,12,25,24.50
2015,07,02,12,26,24.50
2015,07,02,12,27,24.50
2015,07,02,12,28,24.50
2015,07,02,12,29,24.60
2015,07,02,12,30,24.70
2015,07,02,12,31,24.70
2015,07,02,12,32,24.80
2015,07,02,12,33,24.90
2015,07,02,12,34,25.00
2015,07,02,12,35,25.10
2015,07,02,12,36,25.30
2015,07,02,12,37,25.30
2015,07,02,12,38,25.40
2015,07,02,12,39,25.30
2015,07,02,12,40,25.30
2015,07,02,12,41,25.30
2015,07,02,12,42,25.40
2015,07,02,12,43,25.40
2015,07,02,12,44,25.40
2015,07,02,12,45,25.50
2015,07,02,12,46,25.50
2015,07,02,12,47,25.50
2015,07,02,12,48,25.40
2015,07,02,12,49,25.50
2015,07,02,12,50,25.60
2015,07,02,12,51,25.70
2015,07,02,12,52,25.70
2015,07,02,12,53,25.70
2015,07,02,12,54,25.70
2015,07,02,12,55,25.70
2015,07,02,12,56,25.70
2015,07,02,12,57,25.80
2015,07,02,12,58,25.80
2015,07,02,12,59,25.90
2015,07,02,13,00,25.90
2015,07,02,13,01,25.90
2015,07,02,13,02,26.00
2015,07,02,13,03,26.00
2015,07,02,13,04,26.10
2015,07,02,13,05,26.20
2015,07,02,13,06,26.30
2015,07,02,13,07,26.30
2015,07,02,13,08,26.40
2015,07,02,13,09,26.40
2015,07,02,13,10,26.40
2015,07,02,13,11,26.30
2015,07,02,13,12,26.30
2015,07,02,13,13,26.30
2015,07,02,13,14,26.40
2015,07,02,13,15,26.40
2015,07,02,13,16,26.40
2015,07,02,13,17,26.50
2015,07,02,13,18,26.60
2015,07,02,13,19,26.60
2015,07,02,13,20,26.60
2015,07,02,13,21,26.60
2015,07,02,13,22,26.70
2015,07,02,13,23,26.70
2015,07,02,13,24,26.70
2015,07,02,13,25,26.70
2015,07,02,13,26,26.70
2015,07,02,13,27,26.70
2015,07,02,13,28,26.70
2015,07,02,13,29,26.70
2015,07,02,13,30,26.50
2015,07,02,13,31,26.40
2015,07,02,13,32,26.40
2015,07,02,13,33,26.40
2015,07,02,13,34,26.40
2015,07,02,13,35,26.40
2015,07,02,13,36,26.40
2015,07,02,13,37,26.50
2015,07,02,13,38,26.60
2015,07,02,13,39,26.70
2015,07,02,13,40,26.70
2015,07,02,13,41,26.80
2015,07,02,13,42,26.80
2015,07,02,13,43,26.80
2015,07,02,13,44,26.90
2015,07,02,13,45,26.90
2015,07,02,13,46,27.00
2015,07,02,13,47,27.10
2015,07,02,13,48,27.20
2015,07,02,13,49,27.20
2015,07,02,13,50,27.10
2015,07,02,13,51,27.10
2015,07,02,13,52,27.10
2015,07,02,13,53,27.20
2015,07,02,13,54,27.20
2015,07,02,13,55,27.20
2015,07,02,13,56,27.20
2015,07,02,13,57,27.20
2015,07,02,13,58,27.10
2015,07,02,13,59,27.10
2015,07,02,14,00,27.20
2015,07,02,14,01,27.30
2015,07,02,14,02,27.40
2015,07,02,14,03,27.40
2015,07,02,14,04,27.50
2015,07,02,14,05,27.50
2015,07,02,14,06,27.40
2015,07,02,14,07,27.40
2015,07,02,14,08,27.30
2015,07,02,14,09,27.30
2015,07,02,14,10,27.30
2015,07,02,14,11,27.40
2015,07,02,14,12,27.50
2015,07,02,14,13,27.50
2015,07,02,14,14,27.60
2015,07,02,14,15,27.60
2015,07,02,14,16,27.60
2015,07,02,14,17,27.50
2015,07,02,14,18,27.60
2015,07,02,14,19,27.60
2015,07,02,14,20,27.70
2015,07,02,14,21,27.70
2015,07,02,14,22,27.70
2015,07,02,14,23,27.70
2015,07,02,14,24,27.80
2015,07,02,14,25,27.80
2015,07,02,14,26,27.80
2015,07,02,14,27,27.80
2015,07,02,14,28,27.80
2015,07,02,14,29,27.70
2015,07,02,14,30,27.70
2015,07,02,14,31,27.70
2015,07,02,14,32,27.70
2015,07,02,14,33,27.80
2015,07,02,14,34,27.80
2015,07,02,14,35,27.80
2015,07,02,14,36,27.80
2015,07,02,14,37,27.70
2015,07,02,14,38,27.70
2015,07,02,14,39,27.70
2015,07,02,14,40,27.80
2015,07,02,14,41,27.80
2015,07,02,14,42,27.90
2015,07,02,14,43,27.90
2015,07,02,14,44,28.00
2015,07,02,14,45,27.90
2015,07,02,14,46,27.90
2015,07,02,14,47,27.90
2015,07,02,14,48,28.00
2015,07,02,14,49,28.00
2015,07,02,14,50,28.10
2015,07,02,14,51,28.20
2015,07,02,14,52,28.20
2015,07,02,14,53,28.10
2015,07,02,14,54,28.10
2015,07,02,14,55,28.10
2015,07,02,14,56,28.10
2015,07,02,14,57,28.10
2015,07,02,14,58,28.10
2015,07,02,14,59,28.00
2015,07,02,15,00,27.90
2015,07,02,15,01,27.70
2015,07,02,15,02,27.60
2015,07,02,15,03,27.50
2015,07,02,15,04,27.40
2015,07,02,15,05,27.40
2015,07,02,15,06,27.40
2015,07,02,15,07,27.40
2015,07,02,15,08,27.40
2015,07,02,15,09,27.40
2015,07,02,15,10,27.40
2015,07,02,15,11,27.40
2015,07,02,15,12,27.40
2015,07,02,15,13,27.40
2015,07,02,15,14,27.40
2015,07,02,15,15,27.30
2015,07,02,15,16,27.30
2015,07,02,15,17,27.40
2015,07,02,15,18,27.50
2015,07,02,15,19,27.60
2015,07,02,15,20,27.70
2015,07,02,15,21,27.80
